This is the latest recevied weather packets stored in our database for station/object NU3S-7. If no packets are shown the sender has not sent any weather packets the latest 10 day(s).
| Time | Temp. | Humidity | Pressure | Rain* | Wind** | Luminosity | Snow |
|---|---|---|---|---|---|---|---|
| 1778089692 | 12.22° C | 98% | 1010.1 hPa | 11.94 mm | - | - | - |
| 1778087888 | 10.56° C | 100% | 1010.2 hPa | 11.94 mm | - | - | - |
| 1778086697 | 10.56° C | 100% | 1010.1 hPa | 11.94 mm | - | - | - |
| 1778085486 | 11.11° C | 100% | 1009.9 hPa | 11.94 mm | - | - | - |
| 1778084886 | 10° C | 100% | 1009.8 hPa | 11.94 mm | - | - | - |
| 1778084285 | 10° C | 100% | 1009.7 hPa | 11.94 mm | - | - | - |
| 1778083083 | 10° C | 100% | 1009.5 hPa | 11.94 mm | - | - | - |
| 1778081884 | 9.44° C | 100% | 1009.2 hPa | 11.94 mm | - | - | - |
| 1778080079 | 9.44° C | 100% | 1008.8 hPa | 11.94 mm | - | - | - |
| 1778079591 | 9.44° C | 100% | 1008.5 hPa | 11.94 mm | - | - | - |
| 1778079479 | 9.44° C | 100% | 1008.5 hPa | 11.94 mm | - | - | - |
| 1778079010 | 9.44° C | 100% | 1008.2 hPa | 11.94 mm | - | - | - |
| 1778078879 | 9.44° C | 100% | 1008.2 hPa | 11.94 mm | - | - | - |
| 1778078278 | 9.44° C | 100% | 1008.3 hPa | 11.68 mm | - | - | - |
| 1778076610 | 8.89° C | 100% | 1007.7 hPa | 11.68 mm | - | - | - |
| 1778076473 | 8.89° C | 100% | 1007.7 hPa | 11.68 mm | - | - | - |
| 1778075873 | 8.89° C | 100% | 1007.6 hPa | 11.68 mm | - | - | - |
| 1778075306 | 8.89° C | 100% | 1007.6 hPa | 11.68 mm | - | - | - |
| 1778075268 | 8.89° C | 100% | 1007.6 hPa | 11.68 mm | - | - | - |
| 1778074812 | 8.89° C | 100% | 1007.5 hPa | 11.43 mm | - | - | - |
| 1778074668 | 8.89° C | 100% | 1007.5 hPa | 11.43 mm | - | - | - |
| 1778074212 | 9.44° C | 100% | 1007.2 hPa | 11.43 mm | - | - | - |
| 1778074068 | 9.44° C | 100% | 1007.2 hPa | 11.43 mm | - | - | - |
| 1778073611 | 9.44° C | 100% | 1007.3 hPa | 11.18 mm | - | - | - |
| 1778073467 | 9.44° C | 100% | 1007.3 hPa | 11.18 mm | - | - | - |
* Rain since midnight (hover to see other rain measurements)
** Current wind speed in m/s (hover to see current wind gust speed)